N7HRX Weather Reports


time (UTC)temp
C
wind
direction
speed
KPH
gust
KPH
rain 1hr
cm
rain 24hr
cm
rain mn
cm
humidity
%
barometer
mb
20210518192332 25 320 17.7 25.7 0.00 0.00 0.00 32 1012.0
20210518191345 25 28 9.7 24.1 0.00 0.00 0.00 32 1012.2
20210518190347 25 344 12.9 27.4 0.00 0.00 0.00 34 1012.3
20210518185345 25 321 14.5 27.4 0.00 0.00 0.00 32 1012.4
20210518184338 25 309 9.7 17.7 0.00 0.00 0.00 33 1012.6
20210518183330 25 12 11.3 22.5 0.00 0.00 0.00 33 1012.7
20210518182345 25 5 6.4 19.3 0.00 0.00 0.00 31 1012.7
20210518181337 25 11 11.3 20.9 0.00 0.00 0.00 35 1013.0
20210518180403 25 355 12.9 20.9 0.00 0.00 0.00 34 1013.1
20210518175337 24 273 6.4 16.1 0.00 0.00 0.00 38 1013.2
20210518174347 22 234 3.2 8.0 0.00 0.00 0.00 43 1013.3
20210518173340 22 252 4.8 9.7 0.00 0.00 0.00 43 1013.3
20210518172331 22 198 1.6 9.7 0.00 0.00 0.00 43 1013.4
20210518171346 21 177 3.2 9.7 0.00 0.00 0.00 42 1013.4
20210518170346 21 222 4.8 8.0 0.00 0.00 0.00 43 1013.6
20210518165342 20 212 3.2 9.7 0.00 0.00 0.00 45 1013.7
20210518164337 20 360 3.2 8.0 0.00 0.00 0.00 43 1013.7
20210518163330 20 194 4.8 9.7 0.00 0.00 0.00 45 1013.6
20210518162338 20 203 4.8 8.0 0.00 0.00 0.00 46 1013.8
20210518161333 19 203 3.2 6.4 0.00 0.00 0.00 53 1013.9
20210518160355 18 203 1.6 6.4 0.00 0.00 0.00 48 1013.9
20210518155332 18 203 4.8 9.7 0.00 0.00 0.00 49 1013.9
20210518154343 18 171 0.0 9.7 0.00 0.00 0.00 49 1014.0
20210518153332 17 120 3.2 4.8 0.00 0.00 0.00 51 1013.9
20210518152328 17 196 4.8 6.4 0.00 0.00 0.00 51 1014.0
20210518151339 16 52 1.6 4.8 0.00 0.00 0.00 56 1014.0
20210518150343 16 52 1.6 4.8 0.00 0.00 0.00 55 1013.9
20210518145341 15 52 1.6 3.2 0.00 0.00 0.00 57 1013.9
20210518144332 15 52 1.6 3.2 0.00 0.00 0.00 62 1014.0
20210518143328 13 52 0.0 1.6 0.00 0.00 0.00 68 1014.0
20210518142338 13 52 0.0 1.6 0.00 0.00 0.00 69 1014.0
20210518141334 12 52 0.0 0.0 0.00 0.00 0.00 74 1014.1
20210518140353 12 52 0.0 3.2 0.00 0.00 0.00 73 1014.0
20210518135330 11 52 3.2 6.4 0.00 0.00 0.00 77 1013.9
20210518134325 10 52 3.2 6.4 0.00 0.00 0.00 84 1013.9
20210518133343 8 52 3.2 6.4 0.00 0.00 0.00 87 1013.9
20210518132336 7 52 0.0 1.6 0.00 0.00 0.00 87 1013.8
20210518131332 7 52 1.6 6.4 0.00 0.00 0.00 85 1013.9
20210518130358 7 52 4.8 6.4 0.00 0.00 0.00 86 1013.9
20210518125330 7 52 3.2 4.8 0.00 0.00 0.00 86 1013.7
20210518124339 7 52 3.2 4.8 0.00 0.00 0.00 86 1013.8
20210518123334 7 52 3.2 6.4 0.00 0.00 0.00 85 1013.7
20210518122325 7 52 4.8 6.4 0.00 0.00 0.00 85 1013.4
20210518121341 7 52 3.2 4.8 0.00 0.00 0.00 85 1013.4
20210518120343 7 52 3.2 4.8 0.00 0.00 0.00 84 1013.3
20210518115340 7 52 3.2 4.8 0.00 0.00 0.00 84 1013.3
20210518114338 7 52 3.2 4.8 0.00 0.00 0.00 84 1013.3
20210518113327 7 52 4.8 6.4 0.00 0.00 0.00 84 1013.3
20210518112338 7 52 3.2 6.4 0.00 0.00 0.00 83 1013.4
20210518111332 7 52 3.2 6.4 0.00 0.00 0.00 83 1013.2
20210518110341 7 52 1.6 6.4 0.00 0.00 0.00 83 1013.3
20210518105338 8 52 1.6 4.8 0.00 0.00 0.00 83 1013.1
20210518104333 7 52 4.8 6.4 0.00 0.00 0.00 83 1013.1
20210518103327 8 52 3.2 8.0 0.00 0.00 0.00 83 1013.1
20210518102341 7 52 4.8 8.0 0.00 0.00 0.00 83 1013.0
20210518101340 7 52 3.2 4.8 0.00 0.00 0.00 82 1013.1
20210518100403 8 52 1.6 4.8 0.00 0.00 0.00 80 1013.1
20210518095336 8 52 4.8 8.0 0.00 0.00 0.00 80 1013.1
20210518094347 8 52 3.2 8.0 0.00 0.00 0.00 80 1012.9
20210518093337 8 13 1.6 4.8 0.00 0.00 0.00 79 1012.9
20210518092336 8 13 3.2 4.8 0.00 0.00 0.00 80 1012.7
20210518091347 8 13 1.6 8.0 0.00 0.00 0.00 79 1012.6
20210518090348 8 13 4.8 6.4 0.00 0.00 0.00 79 1012.7
20210518085341 8 13 4.8 6.4 0.00 0.00 0.00 78 1012.8
20210518084334 8 13 3.2 4.8 0.00 0.00 0.00 79 1012.9
20210518083332 8 13 1.6 8.0 0.00 0.00 0.00 78 1012.9
20210518082325 9 46 4.8 6.4 0.00 0.00 0.00 78 1012.8
20210518081340 9 46 3.2 4.8 0.00 0.00 0.00 76 1012.8
20210518080347 9 46 4.8 6.4 0.00 0.00 0.00 76 1012.8
20210518075341 10 46 3.2 4.8 0.00 0.00 0.00 76 1012.9
20210518074337 10 46 3.2 4.8 0.00 0.00 0.00 75 1013.0
20210518073326 10 46 3.2 4.8 0.00 0.00 0.00 75 1013.1
20210518072340 10 46 3.2 8.0 0.00 0.00 0.00 74 1012.8
20210518071335 10 51 6.4 9.7 0.00 0.00 0.00 72 1012.7
20210518070357 10 46 6.4 8.0 0.00 0.00 0.00 73 1012.7
20210518065338 10 49 3.2 8.0 0.00 0.00 0.00 72 1012.7
20210518064331 10 49 4.8 8.0 0.00 0.00 0.00 70 1012.6
20210518063345 11 49 6.4 11.3 0.00 0.00 0.00 68 1012.7
20210518062336 11 59 4.8 9.7 0.00 0.00 0.00 70 1012.8
20210518061346 10 59 4.8 11.3 0.00 0.00 0.00 73 1012.9
20210518060352 10 53 4.8 4.8 0.00 0.00 0.00 75 1012.9
20210518055345 10 53 3.2 6.4 0.00 0.00 0.00 74 1013.0
20210518054336 10 53 6.4 8.0 0.00 0.00 0.00 74 1013.0
20210518053330 10 53 6.4 8.0 0.00 0.00 0.00 73 1013.1
20210518052340 10 84 3.2 4.8 0.00 0.00 0.00 74 1013.1
20210518051334 11 84 1.6 3.2 0.00 0.00 0.00 73 1013.0
20210518050401 11 84 4.8 4.8 0.00 0.00 0.00 70 1012.9
20210518045334 11 105 3.2 8.0 0.00 0.00 0.00 71 1013.1
20210518044327 11 257 3.2 6.4 0.00 0.00 0.00 71 1013.0
20210518043342 11 257 1.6 8.0 0.00 0.00 0.00 70 1013.0
20210518042333 12 257 4.8 6.4 0.00 0.00 0.00 68 1013.0
20210518041330 11 257 1.6 3.2 0.00 0.00 0.00 69 1013.2
20210518040355 12 257 0.0 6.4 0.00 0.00 0.00 68 1013.1
20210518035332 12 257 3.2 4.8 0.00 0.00 0.00 67 1012.8
20210518034340 12 257 3.2 4.8 0.00 0.00 0.00 66 1012.6
20210518033331 12 257 0.0 6.4 0.00 0.00 0.00 66 1012.4
20210518032343 13 257 4.8 6.4 0.00 0.00 0.00 64 1012.4
20210518031333 14 257 0.0 4.8 0.00 0.00 0.00 57 1012.2
20210518030356 15 257 0.0 3.2 0.00 0.00 0.00 54 1012.2
20210518025330 15 257 1.6 6.4 0.00 0.00 0.00 54 1012.1
20210518024342 16 255 4.8 9.7 0.00 0.00 0.00 47 1011.9
20210518023337 17 263 3.2 11.3 0.00 0.00 0.00 46 1011.7
20210518022326 17 246 4.8 8.0 0.00 0.00 0.00 45 1011.7
20210518021340 17 229 4.8 14.5 0.00 0.00 0.00 47 1011.3
20210518020401 17 227 6.4 9.7 0.00 0.00 0.00 44 1011.3
20210518015325 18 15 4.8 9.7 0.00 0.00 0.00 40 1011.3
20210518014338 19 332 6.4 9.7 0.00 0.00 0.00 38 1010.9
20210518013334 20 351 6.4 11.3 0.00 0.00 0.00 37 1011.1
20210518012345 20 331 9.7 14.5 0.00 0.00 0.00 38 1011.1
20210518011335 20 313 4.8 14.5 0.00 0.00 0.00 37 1011.1
20210518010400 20 234 6.4 9.7 0.00 0.00 0.00 37 1011.0
20210518005332 20 13 4.8 9.7 0.00 0.00 0.00 35 1011.1
20210518004346 20 24 8.0 12.9 0.00 0.00 0.00 36 1011.1
20210518003336 21 81 8.0 12.9 0.00 0.00 0.00 36 1010.9
20210518002345 20 194 6.4 8.0 0.00 0.00 0.00 36 1010.7
20210518001334 21 273 4.8 14.5 0.00 0.00 0.00 35 1010.7
20210518000355 21 27 3.2 11.3 0.00 0.00 0.00 34 1010.9
20210517235325 21 109 8.0 11.3 0.00 0.00 0.00 35 1010.8
20210517234340 21 60 3.2 6.4 0.00 0.00 0.00 29 1010.7
20210517233331 21 34 6.4 14.5 0.00 0.00 0.00 32 1010.6
20210517232341 22 38 9.7 14.5 0.00 0.00 0.00 33 1010.8
20210517231332 21 348 9.7 19.3 0.00 0.00 0.00 33 1010.9
20210517230354 21 355 6.4 16.1 0.00 0.00 0.00 40 1010.9
20210517225333 21 37 8.0 17.7 0.00 0.00 0.00 37 1011.3
20210517224327 20 111 8.0 14.5 0.00 0.00 0.00 38 1011.4
20210517223337 19 62 8.0 22.5 0.00 0.00 0.00 40 1011.6
20210517222346 18 103 11.3 25.7 0.00 0.00 0.00 42 1012.1
20210517221336 18 98 14.5 25.7 0.00 0.00 0.00 40 1012.1
20210517220345 18 44 14.5 20.9 0.00 0.00 0.00 40 1012.1
20210517215340 18 44 16.1 24.1 0.00 0.00 0.00 41 1012.2
20210517214327 18 63 16.1 27.4 0.00 0.00 0.00 41 1012.4
20210517213339 19 36 12.9 30.6 0.00 0.00 0.00 38 1012.5
20210517212327 19 66 19.3 30.6 0.00 0.00 0.00 40 1012.2
20210517211342 20 84 16.1 25.7 0.00 0.00 0.00 37 1012.3
20210517210355 20 24 8.0 16.1 0.00 0.00 0.00 49 1012.2
20210517205329 19 339 12.9 20.9 0.00 0.00 0.00 49 1012.1
20210517204340 19 15 4.8 9.7 0.00 0.00 0.00 48 1012.1
20210517203331 19 348 9.7 14.5 0.00 0.00 0.00 49 1012.0
20210517202330 19 42 0.0 6.4 0.00 0.00 0.00 49 1012.1
20210517201340 18 88 4.8 14.5 0.00 0.00 0.00 51 1012.4
20210517200403 18 63 4.8 11.3 0.00 0.00 0.00 54 1012.3
20210517195334 18 39 0.0 0.0 0.00 0.00 0.00 52 1012.3
20210517194344 18 111 0.0 4.8 0.00 0.00 0.00 54 1012.4
20210517193339 18 111 0.0 0.0 0.00 0.00 0.00 52 1012.7